[[[{"header":{"parameterUnit":"kt","parameterCategory":2,"dx":1,"dy":1,"la1":30.253999710083008,"la2":30.299108505249023,"lo1":-89.0895004272461,"lo2":-89.04439544677734,"nx":28,"ny":28,"refTime":"2022-10-31T21:00:00:Z","depth":0,"parameterNumber":1,"parameterNumberName":"U-component_of_WINDS"},"data":[2.9766,2.9873,2.9913,3.0056,3.0117,3.0222,3.0273,3.0343,3.0411,3.0543,3.0627,3.0681,3.0767,3.088,3.0975,3.0998,3.1035,3.1042,3.1068,3.0994,3.0987,3.098,3.0955,3.105,3.105,3.1138,3.1139,3.1139,2.9707,2.9767,2.9854,2.9966,3.0042,3.0059,3.0151,3.0213,3.0308,3.0392,3.0477,3.0598,3.07,3.0786,3.0892,3.0946,3.0961,3.0971,3.0968,3.0981,3.0904,3.0878,3.0957,3.0957,3.0957,3.0957,3.0957,3.0957,2.9611,2.9674,2.9765,2.986,2.9928,3.0004,3.0072,3.0136,3.0224,3.0337,3.0371,3.048,3.0574,3.0724,3.0785,3.0873,3.087,3.0896,3.0902,3.0907,3.0907,3.0772,3.0894,3.0894,3.0894,3.0894,3.0894,0,2.9553,2.9583,2.9669,2.9767,2.984,2.9921,3.0003,3.0047,3.0126,3.0196,3.0301,3.0368,3.0504,3.0608,3.0718,3.0778,3.0805,3.0814,3.0831,3.0815,3.0786,3.0802,3.0673,3.081,3.0809,3.0809,3.0808,3.0808,2.9459,2.9528,2.9643,2.9699,2.9753,2.9842,2.9904,2.9969,3.0033,3.0145,3.0199,3.0305,3.0392,3.0556,3.0634,3.0737,3.0751,3.0798,3.0767,3.0748,3.0752,3.0746,3.0754,3.0803,3.0803,3.0804,3.0804,0,2.9402,2.9468,2.9589,2.9697,2.9727,2.9797,2.9891,2.9958,3.0014,3.0115,3.0143,3.0232,3.0335,3.0406,3.054,3.0574,3.0693,3.0705,3.0661,3.0667,3.0716,3.071,3.0864,3.0888,3.0791,3.0792,3.0793,0,2.9347,2.9436,2.953,2.9596,2.9698,2.976,2.9859,2.9917,2.9998,3.0078,3.0119,3.0194,3.0273,3.0359,3.041,3.0521,3.0546,3.0579,3.0591,3.0575,3.0571,3.0611,3.0606,3.0617,3.0616,3.0616,3.0615,0,2.925,2.9405,2.9513,2.956,2.9685,2.9735,2.9791,2.9882,2.9943,3.0034,3.0074,3.0177,3.0233,3.0313,3.0376,3.0352,3.0513,3.0494,3.0547,3.0545,3.0579,3.0576,3.0695,3.0614,3.0614,3.0613,3.0613,0,2.9217,2.9304,2.9451,2.9556,2.9594,2.9667,2.977,2.9848,2.9942,2.9977,3.005,3.0086,3.0188,3.0164,3.0306,3.0257,3.031,3.0351,3.0357,3.037,3.034,3.0397,3.0503,3.0516,3.0382,3.038,3.0379,0,2.9087,2.9253,2.9307,2.9447,2.9533,2.9571,2.9653,2.9735,2.9789,2.9872,2.9934,3.0029,3.0025,3.0065,3.0126,3.0194,3.0259,3.0188,3.031,3.0314,3.0282,3.0381,3.0378,3.0471,3.0355,3.0358,3.0359,0,2.8995,2.9145,2.9166,2.9221,2.9337,2.941,2.9505,2.9611,2.9663,2.9751,2.9833,2.9969,2.9972,3.0037,3.0078,3.0138,3.0217,3.0134,3.0137,3.0146,3.0349,3.0346,3.0362,3.0232,3.0235,3.0237,3.0341,0,2.8928,2.902,2.9079,2.9199,2.9267,2.9358,2.943,2.9492,2.9523,2.9577,2.97,2.9787,2.9899,2.9935,2.9967,3.0082,3.0074,3.0076,3.0057,3.0121,3.0157,3.0172,2.9997,2.9997,2.9997,2.9997,0,0,2.8788,2.892,2.8977,2.9069,2.9129,2.9167,2.9258,2.9323,2.9451,2.9492,2.9482,2.9686,2.9758,2.9899,2.9925,2.9971,2.9998,2.9973,3.009,3.01,3.011,3.0147,3.0161,2.9997,2.9997,2.9997,2.9997,0,2.8778,2.8845,2.8933,2.9001,2.9103,2.9156,2.9177,2.9287,2.9326,2.9445,2.9478,2.956,2.9722,2.9794,2.9852,2.9958,2.9979,2.9987,3.0018,3.0087,3.0097,3.0106,3.0144,3.0157,2.9997,2.9997,2.9997,0,2.87,2.8778,2.8828,2.8965,2.9033,2.9122,2.9118,2.9212,2.9279,2.932,2.9438,2.9497,2.9599,2.9723,2.9781,2.9774,2.9956,2.9912,2.9915,2.9923,2.9994,3.0006,3.0016,2.9874,2.9873,2.9873,0,0,2.8681,2.8766,2.8871,2.8968,2.9008,2.9089,2.9144,2.918,2.9269,2.9304,2.938,2.9468,2.9563,2.9624,2.9718,2.9843,2.987,2.9894,2.99,2.9904,2.9915,2.9986,2.9998,2.987,2.987,2.987,0,0,2.8674,2.8798,2.8812,2.8933,2.9015,2.9127,2.9184,2.9206,2.9296,2.9294,2.9362,2.9389,2.9506,2.9563,2.9516,2.9712,2.9692,2.9705,2.967,2.9679,2.9685,2.9669,2.9527,0,0,0,0,0,2.8699,2.8782,2.8793,2.8824,2.8999,2.912,2.9143,2.9199,2.9183,2.9227,2.9294,2.9313,2.9552,2.9512,2.9543,2.9595,2.9834,2.984,2.9846,2.9831,2.9839,2.9846,0,0,0,0,0,0,2.8712,2.8749,2.8791,2.8905,2.8945,2.9117,2.9102,2.912,2.9179,2.9181,2.9299,2.9316,2.9369,2.95,2.9527,2.9575,2.9518,2.9836,2.9842,2.9846,2.9834,2.9841,2.9846,0,0,0,0,0,2.8722,2.8752,2.9017,2.8904,2.8939,2.9034,2.9099,2.9114,2.9162,2.9265,2.9283,2.9198,2.9368,2.9395,2.9517,2.9561,2.95,2.951,2.984,2.9844,2.9848,2.9837,0,0,0,0,0,0,2.873,2.8768,2.9026,2.9039,2.8877,2.9025,2.905,2.9109,2.9243,2.9262,2.9168,2.9167,2.9369,2.939,2.9411,2.9553,2.9485,2.9495,2.9501,2.9843,2.9846,2.9849,0,0,0,0,0,0,2.8752,2.8778,2.9032,2.8994,2.9003,2.9017,2.9039,2.9151,2.9245,2.9139,2.9142,2.9166,2.9339,2.9387,2.9403,2.9575,2.9473,2.9483,2.9489,2.9494,2.9846,2.9848,0,0,0,0,0,0,2.8764,2.8787,2.8991,2.8998,2.9006,2.9154,2.9117,2.9294,2.9208,2.9132,2.9203,2.92,2.9336,2.9353,2.9397,2.9563,2.9572,2.9473,2.948,2.9485,2.9488,0,0,0,0,0,0,0,2.8774,2.8608,2.8949,2.9002,2.9008,2.9157,2.916,2.9164,2.9208,2.9206,2.9203,2.9201,2.9418,2.9428,2.9439,2.9552,0,0,2.9472,2.9477,0,0,0,0,0,0,0,0,2.86,2.8606,2.895,2.8953,2.8955,2.9157,2.916,2.9163,2.9207,2.9206,2.9204,2.9202,2.942,2.9429,2.9438,0,0,0,0,0,0,0,0,0,0,0,0,0,0,0,2.895,2.8952,0,2.9158,2.916,2.9162,2.9207,2.9206,2.9204,2.9203,2.9423,2.943,2.9437,0,0,0,0,0,0,0,0,0,0,0,0,0,0,0,0,0,0,0,0,0,0,0,0,0,0,0,0,0,0,0,0,0,0,0,0,0,0,0,0,0,0,0,0,0,0,0,0,0,0,0,0,0,0,0,0,0,0,0,0,0,0,0,0,0,0,0,0,0]}],[{"header":{"parameterUnit":"kt","parameterCategory":2,"dx":1,"dy":1,"la1":30.253999710083008,"la2":30.299108505249023,"lo1":-89.0895004272461,"lo2":-89.04439544677734,"nx":28,"ny":28,"refTime":"2022-10-31T21:00:00:Z","depth":0,"parameterNumber":2,"parameterNumberName":"V-component_of_WINDS"},"data":[4.6846,4.6812,4.6781,4.6726,4.6688,4.6643,4.6616,4.6578,4.6539,4.6477,4.6435,4.6398,4.6343,4.6282,4.6231,4.6215,4.6194,4.6203,4.6181,4.6176,4.6173,4.617,4.6177,4.62,4.62,4.619,4.619,4.619,4.6836,4.68,4.6764,4.6707,4.6673,4.6646,4.6597,4.6569,4.6529,4.6481,4.644,4.6382,4.6332,4.6273,4.6217,4.6194,4.6177,4.6181,4.6181,4.6172,4.6166,4.6174,4.6196,4.6196,4.6196,4.6196,4.6196,4.6196,4.6808,4.679,4.674,4.6699,4.6663,4.6624,4.6599,4.6557,4.6518,4.6462,4.6432,4.6384,4.6328,4.6247,4.6211,4.6169,4.6158,4.6153,4.615,4.6149,4.615,4.616,4.6159,4.6159,4.6159,4.6158,4.6158,0,4.6778,4.6754,4.672,4.6674,4.6643,4.6605,4.6564,4.6548,4.6486,4.6456,4.641,4.6378,4.6312,4.6262,4.6204,4.6168,4.6134,4.6129,4.6123,4.6136,4.6152,4.6138,4.6127,4.6129,4.6129,4.6128,4.6128,4.6128,4.6744,4.6729,4.6664,4.6642,4.6614,4.6581,4.6554,4.6501,4.6474,4.6414,4.6399,4.635,4.6309,4.6238,4.6185,4.6135,4.6117,4.6121,4.611,4.6121,4.6112,4.6112,4.6108,4.6124,4.6124,4.6125,4.6125,0,4.6727,4.6681,4.6648,4.6585,4.6568,4.6553,4.6496,4.6475,4.6437,4.6401,4.6389,4.6329,4.6283,4.6231,4.6169,4.6142,4.6105,4.6091,4.6122,4.6115,4.6109,4.6109,4.611,4.6105,4.6085,4.6086,4.6086,0,4.6678,4.6661,4.6592,4.6576,4.6552,4.6502,4.6478,4.6444,4.64,4.6372,4.6328,4.6301,4.624,4.6204,4.6165,4.6126,4.6116,4.6092,4.6081,4.6095,4.6097,4.6077,4.6075,4.6064,4.6064,4.6064,4.6064,0,4.6653,4.6599,4.6573,4.6552,4.6485,4.6472,4.6443,4.6395,4.6369,4.6328,4.631,4.6265,4.624,4.6203,4.6154,4.6148,4.6107,4.6089,4.6082,4.6083,4.6075,4.6076,4.6091,4.6064,4.6064,4.6064,4.6064,0,4.6607,4.6572,4.6543,4.6484,4.6471,4.6455,4.6408,4.6383,4.6335,4.631,4.6278,4.6243,4.621,4.6194,4.6144,4.615,4.6125,4.61,4.6099,4.6092,4.6075,4.6086,4.6109,4.6107,4.6084,4.6084,4.6084,0,4.6587,4.6548,4.6507,4.648,4.6455,4.6408,4.6387,4.6349,4.6315,4.6285,4.6247,4.6215,4.6193,4.6175,4.6158,4.6116,4.6109,4.6116,4.6065,4.6064,4.6076,4.6097,4.6113,4.611,4.6086,4.6086,4.6085,0,4.6568,4.6492,4.6491,4.6464,4.641,4.639,4.6368,4.6327,4.6308,4.6273,4.6249,4.6205,4.6184,4.6158,4.6126,4.6111,4.6112,4.6092,4.609,4.6093,4.6085,4.6098,4.6098,4.6093,4.6093,4.6093,4.6087,0,4.6498,4.6476,4.6473,4.6424,4.6401,4.6385,4.6337,4.6318,4.629,4.6257,4.6224,4.6183,4.614,4.613,4.6104,4.6088,4.6082,4.6063,4.6043,4.6059,4.6055,4.6054,4.6052,4.6051,4.605,4.605,0,0,4.6488,4.6457,4.6416,4.6397,4.6375,4.633,4.6316,4.6289,4.6238,4.6222,4.6211,4.6144,4.6111,4.6076,4.6078,4.6063,4.6053,4.6052,4.6053,4.6054,4.6054,4.6051,4.6051,4.6048,4.6048,4.6048,4.6048,0,4.6454,4.6428,4.6418,4.639,4.6347,4.6314,4.6312,4.6261,4.624,4.6212,4.6173,4.6149,4.6101,4.6068,4.6045,4.6055,4.6026,4.6046,4.6066,4.6048,4.6049,4.605,4.6048,4.6049,4.6046,4.6046,4.6046,0,4.6422,4.6387,4.6379,4.6334,4.6307,4.6284,4.6251,4.6232,4.6213,4.6166,4.6139,4.611,4.6065,4.6042,4.6031,4.602,4.6004,4.6004,4.6007,4.6004,4.5984,4.5986,4.5988,4.5964,4.5963,4.5963,0,0,4.6398,4.638,4.6328,4.6324,4.6309,4.6262,4.6247,4.6219,4.6183,4.6169,4.6132,4.6096,4.6065,4.6048,4.6018,4.6001,4.5985,4.5996,4.6,4.6003,4.6002,4.5983,4.5985,4.5963,4.5963,4.5963,0,0,4.6386,4.6327,4.6307,4.6298,4.6265,4.6213,4.621,4.6184,4.6154,4.6151,4.6102,4.609,4.6069,4.6043,4.6043,4.6009,4.5991,4.599,4.6028,4.6032,4.6036,4.6041,4.6004,0,0,0,0,0,4.6328,4.6334,4.6317,4.6309,4.6254,4.6222,4.6215,4.6176,4.6162,4.616,4.6124,4.6098,4.6031,4.6031,4.6022,4.6022,4.5959,4.5959,4.596,4.6004,4.6009,4.6013,0,0,0,0,0,0,4.6325,4.6315,4.6316,4.6266,4.6253,4.6222,4.619,4.6179,4.6161,4.6157,4.6105,4.6096,4.6061,4.6033,4.6025,4.6026,4.6007,4.5959,4.596,4.596,4.6006,4.601,4.6014,0,0,0,0,0,4.6322,4.6314,4.6237,4.6265,4.6254,4.6204,4.6189,4.618,4.6166,4.6113,4.6103,4.6138,4.6062,4.6053,4.6028,4.603,4.6011,4.6009,4.5959,4.596,4.596,4.6008,0,0,0,0,0,0,4.6319,4.6304,4.6234,4.6229,4.6262,4.6204,4.6194,4.6181,4.6122,4.6112,4.6143,4.614,4.6063,4.6056,4.6049,4.6034,4.6015,4.6013,4.6011,4.596,4.596,4.5961,0,0,0,0,0,0,4.6308,4.63,4.6231,4.6229,4.6224,4.6205,4.6197,4.6171,4.6122,4.6156,4.6151,4.6143,4.6073,4.6058,4.6052,4.6014,4.6019,4.6016,4.6014,4.6013,4.596,4.596,0,0,0,0,0,0,4.6304,4.6297,4.623,4.6226,4.6221,4.6162,4.6182,4.6127,4.6122,4.6159,4.6121,4.612,4.6075,4.6069,4.6055,4.6019,4.6016,4.6018,4.6017,4.6015,4.6015,0,0,0,0,0,0,0,4.6301,4.6356,4.6264,4.6223,4.6219,4.6183,4.6181,4.618,4.6122,4.6122,4.6121,4.612,4.6033,4.603,4.6028,4.6024,0,0,4.6019,4.6017,0,0,0,0,0,0,0,0,4.6358,4.6356,4.6264,4.6263,4.6262,4.6183,4.6181,4.618,4.6122,4.6122,4.6121,4.6121,4.6033,4.603,4.6028,0,0,0,0,0,0,0,0,0,0,0,0,0,0,0,4.6264,4.6263,0,4.6182,4.6181,4.618,4.6122,4.6122,4.6121,4.6121,4.6032,4.603,4.6028,0,0,0,0,0,0,0,0,0,0,0,0,0,0,0,0,0,0,0,0,0,0,0,0,0,0,0,0,0,0,0,0,0,0,0,0,0,0,0,0,0,0,0,0,0,0,0,0,0,0,0,0,0,0,0,0,0,0,0,0,0,0,0,0,0,0,0,0,0]}]]]